Weather History for Rogers, AR

Change the Weather History Date:

Wednesday, March 13, 2013

  Actual Average Record
Temperature  
Mean Temperature 38 °F -  
Max Temperature 48 °F 53 °F 80 °F (2012)
Min Temperature 28 °F 35 °F 24 °F (1998)
Degree Days  
Heating Degree Days 27    
Moisture  
Dew Point 18 °F    
Average Humidity 47    
Maximum Humidity 75    
Minimum Humidity 22    
Precipitation  
Precipitation 0.00 in - - ()
Sea Level Pressure  
Sea Level Pressure 30.42 in    
Wind  
Wind Speed 5 mph (North)    
Max Wind Speed 9 mph    
Max Gust Speed -    
Visibility 10 miles    
Events      
Averages and records for this station are not official NWS values.
T = Trace of Precipitation, MM = Missing Value Source: NWS Daily Summary

Daily Weather History Graph

Daily Weather History Graph

Search for Another Location

Airport:

Trip Planner

Search our weather history database for the weather conditions in past years. The results will help you decide how hot, cold, wet, or windy it might be!

Date:

Astronomy

Mar. 13, 2013 Rise Set
Actual Time 7:29 AM CDT 7:22 PM CDT
Civil Twilight 7:04 AM CDT 7:48 PM CDT
Nautical Twilight 6:34 AM CDT 8:17 PM CDT
Astronomical Twilight 6:04 AM CDT 8:48 PM CDT
Moon 8:14 AM CDT (3/13) 9:34 PM CDT (3/13)
Length of Visible Light 12h 43m
Length of Day
11h 52m
Waxing Crescent, 4% of the Moon is Illuminated
Mar 13
Waxing Crescent
Mar 19
First Quarter
Mar 27
Full
Apr 2
Last Quarter
Apr 10
New

Hourly Weather History & Observations

Time (CDT) Temp. Windchill Dew Point Humidity Pressure Visibility Wind Dir Wind Speed Gust Speed Precip Events Conditions
12:57 AM 37.0 °F 34.5 °F 19.9 °F 50% 30.35 in 10.0 mi NNW 3.5 mph - N/A   Clear
1:57 AM 34.0 °F 29.8 °F 19.9 °F 56% 30.35 in 10.0 mi NW 4.6 mph - N/A   Clear
2:57 AM 33.1 °F 28.7 °F 19.0 °F 56% 30.36 in 10.0 mi NW 4.6 mph - N/A   Clear
3:57 AM 32.0 °F 28.7 °F 19.0 °F 59% 30.35 in 10.0 mi WNW 3.5 mph - N/A   Clear
4:57 AM 30.9 °F 25.2 °F 21.0 °F 67% 30.36 in 10.0 mi WNW 5.8 mph - N/A   Clear
5:57 AM 28.9 °F 23.9 °F 21.0 °F 72% 30.39 in 10.0 mi NW 4.6 mph - N/A   Clear
6:57 AM 28.0 °F 20.8 °F 21.0 °F 75% 30.42 in 10.0 mi North 6.9 mph - N/A   Clear
7:57 AM 28.0 °F 22.8 °F 21.0 °F 75% 30.44 in 10.0 mi North 4.6 mph - N/A   Clear
8:57 AM 30.9 °F 27.5 °F 21.0 °F 67% 30.46 in 10.0 mi NNW 3.5 mph - N/A   Clear
9:57 AM 34.0 °F 26.6 °F 19.0 °F 54% 30.48 in 10.0 mi North 9.2 mph - N/A   Clear
10:57 AM 37.0 °F 30.4 °F 19.0 °F 48% 30.49 in 10.0 mi North 9.2 mph - N/A   Clear
11:57 AM 39.9 °F 34.5 °F 19.0 °F 43% 30.48 in 10.0 mi NE 8.1 mph - N/A   Clear
12:57 PM 42.1 °F 39.2 °F 17.1 °F 37% 30.49 in 10.0 mi NW 4.6 mph - N/A   Clear
1:57 PM 46.0 °F 41.9 °F 15.1 °F 29% 30.47 in 10.0 mi North 8.1 mph - N/A   Clear
2:57 PM 46.9 °F - 15.1 °F 28% 30.45 in 10.0 mi Calm Calm - N/A   Clear
3:57 PM 48.0 °F - 14.0 °F 26% 30.42 in 10.0 mi NE 9.2 mph - N/A   Mostly Cloudy
4:57 PM 48.0 °F - 10.9 °F 22% 30.41 in 10.0 mi North 4.6 mph - N/A   Mostly Cloudy
5:57 PM 48.0 °F - 12.0 °F 24% 30.41 in 10.0 mi NNE 3.5 mph - N/A   Mostly Cloudy
6:57 PM 48.0 °F - 12.0 °F 24% 30.40 in 10.0 mi Calm Calm - N/A   Clear
7:57 PM 44.1 °F - 15.1 °F 31% 30.40 in 10.0 mi Calm Calm - N/A   Clear
8:57 PM 43.0 °F 41.3 °F 16.0 °F 34% 30.40 in 10.0 mi SE 3.5 mph - N/A   Clear
9:57 PM 41.0 °F 39.0 °F 17.1 °F 38% 30.40 in 10.0 mi SSE 3.5 mph - N/A   Clear
10:57 PM 39.0 °F 34.8 °F 19.9 °F 46% 30.40 in 10.0 mi ESE 5.8 mph - N/A   Clear
11:57 PM 35.1 °F 30.1 °F 24.1 °F 64% 30.39 in 10.0 mi ESE 5.8 mph - N/A   Clear